Time,TemperatureF,DewpointF,PressureIn,WindDirection,WindDirectionDegrees,WindSpeedMPH,WindSpeedGustMPH,Humidity,HourlyPrecipIn,Conditions,Clouds,dailyrainin,SoftwareType,DateUTC
2013-02-11 00:01:00,63.0,56.0,30.20,SE,127,7.0,10.0,79,0.48,,,-99.99,,2013-02-11 05:01:00,
2013-02-11 00:12:00,62.0,55.0,30.20,SE,128,6.0,9.0,79,0.48,,,-99.99,,2013-02-11 05:12:00,
2013-02-11 00:22:00,62.0,55.0,30.20,SE,128,6.0,9.0,79,0.48,,,-99.99,,2013-02-11 05:22:00,
2013-02-11 00:32:00,62.0,56.0,30.19,ESE,115,6.0,10.0,80,0.48,,,-99.99,,2013-02-11 05:32:00,
2013-02-11 00:42:00,62.0,56.0,30.19,SE,125,7.0,10.0,81,0.48,,,-99.99,,2013-02-11 05:42:00,
2013-02-11 00:53:00,62.0,56.0,30.19,SE,125,7.0,10.0,81,0.48,,,-99.99,,2013-02-11 05:53:00,
2013-02-11 01:02:00,62.0,56.0,30.19,SE,136,6.0,10.0,82,0.48,,,-99.99,,2013-02-11 06:02:00,
2013-02-11 01:11:00,62.0,57.0,30.18,SE,135,7.0,9.0,83,0.48,,,-99.99,,2013-02-11 06:11:00,
2013-02-11 01:22:00,62.0,57.0,30.18,SE,135,7.0,9.0,83,0.48,,,-99.99,,2013-02-11 06:22:00,
2013-02-11 01:32:00,61.0,56.0,30.18,ESE,121,6.0,8.0,83,0.48,,,-99.99,,2013-02-11 06:32:00,
2013-02-11 01:42:00,61.0,57.0,30.18,SE,128,6.0,9.0,86,0.48,,,-99.99,,2013-02-11 06:42:00,
2013-02-11 01:52:00,61.0,57.0,30.18,SE,128,6.0,9.0,86,0.48,,,-99.99,,2013-02-11 06:52:00,
2013-02-11 02:01:00,61.0,57.0,30.17,SE,138,5.0,7.0,86,0.48,,,-99.99,,2013-02-11 07:01:00,
2013-02-11 02:11:00,61.0,57.0,30.17,SSE,153,5.0,6.0,87,0.48,,,-99.99,,2013-02-11 07:11:00,
2013-02-11 02:22:00,61.0,57.0,30.17,SSE,153,5.0,6.0,87,0.48,,,-99.99,,2013-02-11 07:22:00,
2013-02-11 02:32:00,60.0,57.0,30.17,SSE,155,5.0,6.0,89,0.48,,,-99.99,,2013-02-11 07:32:00,
2013-02-11 02:42:00,60.0,58.0,30.16,SSE,148,6.0,8.0,93,0.48,,,-99.99,,2013-02-11 07:42:00,
2013-02-11 02:52:00,60.0,58.0,30.16,SSE,148,6.0,8.0,93,0.48,,,-99.99,,2013-02-11 07:52:00,
2013-02-11 03:01:00,60.0,58.0,30.16,SSE,162,6.0,8.0,94,0.48,,,-99.99,,2013-02-11 08:01:00,
2013-02-11 03:11:00,61.0,58.0,30.15,SSE,159,6.0,9.0,91,0.48,,,-99.99,,2013-02-11 08:11:00,
2013-02-11 03:21:00,61.0,58.0,30.15,SSE,159,6.0,9.0,91,0.48,,,-99.99,,2013-02-11 08:21:00,
2013-02-11 03:32:00,60.0,57.0,30.15,SSE,159,6.0,8.0,90,0.48,,,-99.99,,2013-02-11 08:32:00,
2013-02-11 03:42:00,60.0,58.0,30.15,SSE,158,7.0,9.0,94,0.48,,,-99.99,,2013-02-11 08:42:00,
2013-02-11 03:52:00,60.0,58.0,30.15,SSE,158,7.0,9.0,94,0.48,,,-99.99,,2013-02-11 08:52:00,
2013-02-11 04:01:00,60.0,59.0,30.15,SSE,155,6.0,9.0,95,0.48,,,-99.99,,2013-02-11 09:01:00,
2013-02-11 04:12:00,60.0,59.0,30.14,SSE,150,6.0,8.0,95,0.48,,,-99.99,,2013-02-11 09:12:00,
2013-02-11 04:21:00,60.0,59.0,30.14,SSE,150,6.0,8.0,95,0.48,,,-99.99,,2013-02-11 09:21:00,
2013-02-11 04:32:00,60.0,59.0,30.14,SE,139,6.0,8.0,96,0.48,,,-99.99,,2013-02-11 09:32:00,
2013-02-11 04:42:00,60.0,59.0,30.14,SE,139,6.0,8.0,96,0.48,,,-99.99,,2013-02-11 09:42:00,
2013-02-11 04:52:00,60.0,59.0,30.14,SE,131,5.0,7.0,96,0.48,,,-99.99,,2013-02-11 09:52:00,
2013-02-11 05:01:00,60.0,59.0,30.14,SE,142,4.0,7.0,97,0.48,,,-99.99,,2013-02-11 10:01:00,
2013-02-11 05:11:00,59.0,58.0,30.15,SE,129,4.0,6.0,97,0.48,,,-99.99,,2013-02-11 10:11:00,
2013-02-11 05:21:00,59.0,58.0,30.15,SE,129,4.0,6.0,97,0.48,,,-99.99,,2013-02-11 10:21:00,
2013-02-11 05:32:00,59.0,58.0,30.16,SE,127,3.0,5.0,98,0.48,,,-99.99,,2013-02-11 10:32:00,
2013-02-11 05:42:00,59.0,58.0,30.16,SE,127,4.0,5.0,98,0.48,,,-99.99,,2013-02-11 10:42:00,
2013-02-11 05:52:00,59.0,58.0,30.16,SE,127,4.0,5.0,98,0.48,,,-99.99,,2013-02-11 10:52:00,
2013-02-11 06:02:00,59.0,59.0,30.17,ESE,111,4.0,6.0,99,0.48,,,-99.99,,2013-02-11 11:02:00,
2013-02-11 06:11:00,59.0,59.0,30.17,ESE,111,4.0,6.0,99,0.48,,,-99.99,,2013-02-11 11:11:00,
2013-02-11 06:22:00,60.0,60.0,30.17,ESE,115,6.0,7.0,100,0.48,,,-99.99,,2013-02-11 11:22:00,
2013-02-11 06:32:00,60.0,60.0,30.18,ESE,111,6.0,7.0,100,0.48,,,-99.99,,2013-02-11 11:32:00,
2013-02-11 06:42:00,58.0,58.0,30.18,ENE,77,4.0,7.0,100,0.48,,,-99.99,,2013-02-11 11:42:00,
2013-02-11 06:52:00,58.0,58.0,30.18,ENE,77,4.0,7.0,100,0.48,,,-99.99,,2013-02-11 11:52:00,
2013-02-11 07:03:00,58.0,58.0,30.19,ENE,63,4.0,5.0,100,0.48,,,-99.99,,2013-02-11 12:03:00,
2013-02-11 07:12:00,58.0,58.0,30.19,ENE,76,7.0,8.0,100,0.48,,,-99.99,,2013-02-11 12:12:00,
2013-02-11 07:22:00,58.0,58.0,30.19,ENE,76,7.0,8.0,100,0.48,,,-99.99,,2013-02-11 12:22:00,
2013-02-11 07:32:00,59.0,59.0,30.19,East,79,7.0,9.0,100,0.48,,,-99.99,,2013-02-11 12:32:00,
2013-02-11 07:42:00,59.0,59.0,30.19,East,89,7.0,8.0,100,0.48,,,-99.99,,2013-02-11 12:42:00,
2013-02-11 07:52:00,59.0,59.0,30.19,East,89,7.0,8.0,100,0.48,,,-99.99,,2013-02-11 12:52:00,
2013-02-11 08:02:00,59.0,59.0,30.19,ESE,107,6.0,8.0,100,0.48,,,-99.99,,2013-02-11 13:02:00,
2013-02-11 08:12:00,60.0,60.0,30.19,ESE,110,6.0,8.0,100,0.48,,,-99.99,,2013-02-11 13:12:00,
2013-02-11 08:22:00,60.0,60.0,30.19,ESE,110,6.0,8.0,100,0.48,,,-99.99,,2013-02-11 13:22:00,
2013-02-11 08:32:00,61.0,61.0,30.19,ESE,107,5.0,8.0,100,0.48,,,-99.99,,2013-02-11 13:32:00,
2013-02-11 08:42:00,61.0,61.0,30.19,ESE,107,5.0,8.0,100,0.48,,,-99.99,,2013-02-11 13:42:00,
2013-02-11 08:52:00,63.0,63.0,30.20,ESE,122,5.0,9.0,100,0.48,,,-99.99,,2013-02-11 13:52:00,
2013-02-11 09:02:00,64.0,60.0,30.21,SE,125,6.0,10.0,87,0.48,,,-99.99,,2013-02-11 14:02:00,
2013-02-11 09:12:00,64.0,60.0,30.21,SE,125,6.0,10.0,87,0.48,,,-99.99,,2013-02-11 14:12:00,
2013-02-11 09:22:00,66.0,59.0,30.21,SE,127,7.0,10.0,79,0.48,,,-99.99,,2013-02-11 14:22:00,
2013-02-11 09:33:00,68.0,60.0,30.21,SE,145,7.0,13.0,75,0.48,,,-99.99,,2013-02-11 14:33:00,
2013-02-11 09:42:00,69.0,60.0,30.21,SSE,153,7.0,10.0,74,0.48,,,-99.99,,2013-02-11 14:42:00,
2013-02-11 09:53:00,69.0,60.0,30.21,SSE,153,7.0,10.0,74,0.48,,,-99.99,,2013-02-11 14:53:00,
2013-02-11 10:02:00,71.0,61.0,30.22,SE,143,9.0,14.0,70,0.48,,,-99.99,,2013-02-11 15:02:00,
2013-02-11 10:11:00,71.0,60.0,30.22,SE,145,9.0,15.0,69,0.48,,,-99.99,,2013-02-11 15:11:00,
2013-02-11 10:22:00,71.0,60.0,30.22,SE,145,9.0,15.0,69,0.48,,,-99.99,,2013-02-11 15:22:00,
2013-02-11 10:32:00,73.0,61.0,30.21,South,170,11.0,17.0,65,0.48,,,-99.99,,2013-02-11 15:32:00,
2013-02-11 10:42:00,74.0,61.0,30.21,SSE,158,9.0,15.0,64,0.48,,,-99.99,,2013-02-11 15:42:00,
2013-02-11 10:52:00,74.0,61.0,30.21,SSE,158,9.0,15.0,64,0.48,,,-99.99,,2013-02-11 15:52:00,
2013-02-11 11:02:00,75.0,60.0,30.20,SSW,201,11.0,18.0,60,0.48,,,-99.99,,2013-02-11 16:02:00,
2013-02-11 11:12:00,75.0,60.0,30.20,South,191,11.0,15.0,59,0.48,,,-99.99,,2013-02-11 16:12:00,
2013-02-11 11:22:00,75.0,60.0,30.20,South,191,11.0,15.0,59,0.48,,,-99.99,,2013-02-11 16:22:00,
2013-02-11 11:32:00,76.0,61.0,30.20,SSE,159,11.0,16.0,59,0.48,,,-99.99,,2013-02-11 16:32:00,
2013-02-11 11:42:00,76.0,60.0,30.20,SSE,152,9.0,13.0,58,0.48,,,-99.99,,2013-02-11 16:42:00,
2013-02-11 11:52:00,76.0,60.0,30.20,SSE,152,9.0,13.0,58,0.48,,,-99.99,,2013-02-11 16:52:00,
2013-02-11 12:02:00,77.0,60.0,30.19,South,186,9.0,14.0,56,0.48,,,-99.99,,2013-02-11 17:02:00,
2013-02-11 12:11:00,77.0,60.0,30.19,South,186,9.0,14.0,56,0.48,,,-99.99,,2013-02-11 17:11:00,
2013-02-11 12:22:00,78.0,59.0,30.18,SSW,194,9.0,14.0,53,0.48,,,-99.99,,2013-02-11 17:22:00,
2013-02-11 12:32:00,78.0,58.0,30.18,South,184,9.0,14.0,50,0.48,,,-99.99,,2013-02-11 17:32:00,
2013-02-11 12:42:00,78.0,58.0,30.18,South,184,9.0,14.0,50,0.48,,,-99.99,,2013-02-11 17:42:00,
2013-02-11 12:53:00,78.0,58.0,30.17,SSE,160,10.0,16.0,51,0.48,,,-99.99,,2013-02-11 17:53:00,
2013-02-11 13:02:00,79.0,58.0,30.15,SSE,160,8.0,12.0,49,0.48,,,-99.99,,2013-02-11 18:02:00,
2013-02-11 13:11:00,79.0,58.0,30.15,SSE,160,8.0,12.0,49,0.48,,,-99.99,,2013-02-11 18:11:00,
2013-02-11 13:22:00,79.0,58.0,30.15,SSE,165,9.0,13.0,49,0.48,,,-99.99,,2013-02-11 18:22:00,
2013-02-11 13:32:00,79.0,58.0,30.14,SSE,155,8.0,17.0,49,0.48,,,-99.99,,2013-02-11 18:32:00,
2013-02-11 13:42:00,79.0,58.0,30.13,South,187,8.0,13.0,49,0.48,,,-99.99,,2013-02-11 18:42:00,
2013-02-11 13:53:00,79.0,58.0,30.13,South,187,8.0,13.0,49,0.48,,,-99.99,,2013-02-11 18:53:00,
2013-02-11 14:02:00,80.0,59.0,30.12,South,187,9.0,14.0,48,0.48,,,-99.99,,2013-02-11 19:02:00,
2013-02-11 14:11:00,81.0,59.0,30.11,SW,229,8.0,12.0,48,0.48,,,-99.99,,2013-02-11 19:11:00,
2013-02-11 14:22:00,81.0,59.0,30.11,SW,229,8.0,12.0,48,0.48,,,-99.99,,2013-02-11 19:22:00,
2013-02-11 14:32:00,80.0,57.0,30.11,SSW,194,9.0,14.0,46,0.48,,,-99.99,,2013-02-11 19:32:00,
2013-02-11 14:42:00,80.0,59.0,30.10,SSW,194,10.0,14.0,48,0.48,,,-99.99,,2013-02-11 19:42:00,
2013-02-11 14:52:00,80.0,59.0,30.10,SSW,194,10.0,14.0,48,0.48,,,-99.99,,2013-02-11 19:52:00,
2013-02-11 15:01:00,81.0,59.0,30.10,SSW,200,8.0,14.0,47,0.48,,,-99.99,,2013-02-11 20:01:00,
2013-02-11 15:11:00,80.0,58.0,30.09,SSW,212,7.0,9.0,47,0.48,,,-99.99,,2013-02-11 20:11:00,
2013-02-11 15:21:00,80.0,58.0,30.09,SSW,212,7.0,9.0,47,0.48,,,-99.99,,2013-02-11 20:21:00,
2013-02-11 15:32:00,80.0,58.0,30.09,SW,218,5.0,10.0,47,0.48,,,-99.99,,2013-02-11 20:32:00,
2013-02-11 15:42:00,80.0,57.0,30.09,SW,219,7.0,10.0,46,0.48,,,-99.99,,2013-02-11 20:42:00,
2013-02-11 15:52:00,80.0,57.0,30.09,SW,219,7.0,10.0,46,0.48,,,-99.99,,2013-02-11 20:52:00,
2013-02-11 16:02:00,81.0,57.0,30.08,South,186,6.0,11.0,44,0.48,,,-99.99,,2013-02-11 21:02:00,
2013-02-11 16:12:00,82.0,57.0,30.08,SSE,150,6.0,11.0,43,0.48,,,-99.99,,2013-02-11 21:12:00,
2013-02-11 16:22:00,82.0,57.0,30.08,SSE,150,6.0,11.0,43,0.48,,,-99.99,,2013-02-11 21:22:00,
2013-02-11 16:32:00,82.0,58.0,30.07,WSW,240,7.0,11.0,44,0.48,,,-99.99,,2013-02-11 21:32:00,
2013-02-11 16:42:00,81.0,58.0,30.07,South,187,8.0,11.0,45,0.48,,,-99.99,,2013-02-11 21:42:00,
2013-02-11 16:52:00,81.0,58.0,30.07,South,187,8.0,11.0,45,0.48,,,-99.99,,2013-02-11 21:52:00,
2013-02-11 17:02:00,81.0,58.0,30.07,South,188,8.0,12.0,46,0.48,,,-99.99,,2013-02-11 22:02:00,
2013-02-11 17:12:00,81.0,58.0,30.07,SSW,203,7.0,10.0,45,0.48,,,-99.99,,2013-02-11 22:12:00,
2013-02-11 17:22:00,81.0,58.0,30.07,SSW,203,7.0,10.0,45,0.48,,,-99.99,,2013-02-11 22:22:00,
2013-02-11 17:32:00,80.0,57.0,30.07,SW,218,7.0,10.0,45,0.48,,,-99.99,,2013-02-11 22:32:00,
2013-02-11 17:42:00,80.0,57.0,30.07,SW,218,7.0,10.0,45,0.48,,,-99.99,,2013-02-11 22:42:00,
2013-02-11 17:52:00,80.0,59.0,30.07,SW,217,6.0,9.0,48,0.48,,,-99.99,,2013-02-11 22:52:00,
2013-02-11 18:02:00,80.0,60.0,30.07,SSW,197,5.0,7.0,50,0.48,,,-99.99,,2013-02-11 23:02:00,
2013-02-11 18:11:00,80.0,60.0,30.07,SSW,197,5.0,7.0,50,0.48,,,-99.99,,2013-02-11 23:11:00,
2013-02-11 18:22:00,79.0,60.0,30.07,South,186,2.0,3.0,52,0.48,,,-99.99,,2013-02-11 23:22:00,
2013-02-11 18:32:00,78.0,59.0,30.08,SSW,193,2.0,4.0,53,0.48,,,-99.99,,2013-02-11 23:32:00,
2013-02-11 18:42:00,78.0,59.0,30.08,SSW,193,2.0,4.0,53,0.48,,,-99.99,,2013-02-11 23:42:00,
2013-02-11 18:52:00,78.0,59.0,30.08,South,186,4.0,5.0,53,0.48,,,-99.99,,2013-02-11 23:52:00,
2013-02-11 19:02:00,77.0,59.0,30.08,South,169,2.0,4.0,54,0.48,,,-99.99,,2013-02-12 00:02:00,
2013-02-11 19:12:00,77.0,59.0,30.08,South,169,2.0,4.0,54,0.48,,,-99.99,,2013-02-12 00:12:00,
2013-02-11 19:22:00,76.0,59.0,30.08,SSE,163,5.0,7.0,56,0.48,,,-99.99,,2013-02-12 00:22:00,
2013-02-11 19:32:00,75.0,60.0,30.08,SSE,148,6.0,6.0,60,0.48,,,-99.99,,2013-02-12 00:32:00,
2013-02-11 19:42:00,75.0,60.0,30.08,SSE,148,6.0,6.0,60,0.48,,,-99.99,,2013-02-12 00:42:00,
2013-02-11 19:52:00,74.0,60.0,30.09,SSE,156,5.0,6.0,62,0.48,,,-99.99,,2013-02-12 00:52:00,
2013-02-11 20:02:00,74.0,61.0,30.10,West,263,6.0,8.0,63,0.48,,,-99.99,,2013-02-12 01:02:00,
2013-02-11 20:11:00,74.0,61.0,30.10,West,263,6.0,8.0,63,0.48,,,-99.99,,2013-02-12 01:11:00,
2013-02-11 20:22:00,74.0,61.0,30.11,WSW,240,5.0,7.0,64,0.48,,,-99.99,,2013-02-12 01:22:00,
2013-02-11 20:32:00,74.0,61.0,30.10,WSW,249,3.0,4.0,65,0.48,,,-99.99,,2013-02-12 01:32:00,
2013-02-11 20:42:00,74.0,61.0,30.11,West,266,2.0,4.0,65,0.48,,,-99.99,,2013-02-12 01:42:00,
2013-02-11 20:52:00,74.0,61.0,30.11,West,266,2.0,4.0,65,0.48,,,-99.99,,2013-02-12 01:52:00,
2013-02-11 21:02:00,74.0,61.0,30.11,North,0,0.0,0.0,65,0.48,,,-99.99,,2013-02-12 02:02:00,
2013-02-11 21:12:00,74.0,61.0,30.11,ESE,105,1.0,4.0,65,0.48,,,-99.99,,2013-02-12 02:12:00,
2013-02-11 21:22:00,74.0,61.0,30.11,ESE,105,1.0,4.0,65,0.48,,,-99.99,,2013-02-12 02:22:00,
2013-02-11 21:32:00,74.0,62.0,30.11,East,101,4.0,6.0,66,0.48,,,-99.99,,2013-02-12 02:32:00,
2013-02-11 21:42:00,74.0,62.0,30.11,East,101,4.0,6.0,66,0.48,,,-99.99,,2013-02-12 02:42:00,
2013-02-11 21:53:00,74.0,62.0,30.11,North,0,0.0,0.0,66,0.48,,,-99.99,,2013-02-12 02:53:00,
2013-02-11 22:02:00,74.0,62.0,30.11,North,0,0.0,0.0,67,0.48,,,-99.99,,2013-02-12 03:02:00,
2013-02-11 22:11:00,73.0,62.0,30.11,NNW,338,4.0,5.0,69,0.48,,,-99.99,,2013-02-12 03:11:00,
2013-02-11 22:21:00,73.0,62.0,30.11,NNW,338,4.0,5.0,69,0.48,,,-99.99,,2013-02-12 03:21:00,
2013-02-11 22:32:00,72.0,61.0,30.11,NW,325,1.0,5.0,69,0.48,,,-99.99,,2013-02-12 03:32:00,
2013-02-11 22:42:00,72.0,62.0,30.11,West,264,0.0,1.0,70,0.48,,,-99.99,,2013-02-12 03:42:00,
2013-02-11 22:52:00,72.0,62.0,30.11,West,264,0.0,1.0,70,0.48,,,-99.99,,2013-02-12 03:52:00,
2013-02-11 23:01:00,71.0,62.0,30.11,North,0,0.0,0.0,72,0.48,,,-99.99,,2013-02-12 04:01:00,
2013-02-11 23:11:00,71.0,62.0,30.11,North,0,0.0,0.0,72,0.48,,,-99.99,,2013-02-12 04:11:00,
2013-02-11 23:21:00,70.0,61.0,30.11,North,0,0.0,0.0,73,0.48,,,-99.99,,2013-02-12 04:21:00,
2013-02-11 23:31:00,70.0,61.0,30.11,North,0,0.0,0.0,73,0.48,,,-99.99,,2013-02-12 04:31:00,
2013-02-11 23:42:00,70.0,61.0,30.11,North,0,0.0,0.0,73,0.48,,,-99.99,,2013-02-12 04:42:00,
2013-02-11 23:52:00,69.0,60.0,30.11,North,0,0.0,0.0,73,0.48,,,-99.99,,2013-02-12 04:52:00,